Vorticity
12 13 8 7 8 3 -11 -15 21 38 63 20 13 0 16 -0 20 11 3 -13 -3 28 14 15 10 9 6 6 6 4 2 3 4 4 8 6 6 6 5 5 6 7 7 6 5 5 5 5 5
11 15 6 3 4 -3 7 9 45 12 2 12 11 13 31 -8 3 -7 -10 -18 13 15 26 -3 -2 10 5 7 6 5 4 3 2 4 7 6 7 6 5 7 7 7 6 5 4 4 3 4 4
15 6 9 7 11 3 -27 -5 20 18 12 3 20 4 17 11 10 7 -6 -11 9 3 5 18 24 8 9 6 3 3 3 4 4 3 6 7 7 6 6 7 7 6 5 4 3 4 4 3 3
31 4 1 7 -2 3 12 28 5 6 0 -3 6 7 8 -7 -1 15 36 10 4 11 1 19 7 23 -15 14 7 4 4 3 4 4 7 7 7 6 6 7 6 5 4 4 3 6 6 6 6
2 3 16 -5 -12 -4 28 3 7 10 4 10 10 25 13 -2 20 20 37 15 13 3 14 21 8 -10 -34 16 9 3 4 3 4 6 7 7 7 6 7 8 5 3 3 4 5 3 1 0 1
1 7 -6 -2 -4 60 1 10 5 -1 -6 12 17 12 20 12 23 20 13 10 9 12 2 21 11 13 15 8 15 2 1 7 5 6 7 8 7 7 9 6 3 3 3 4 1 2 5 7 7
-6 -1 -1 14 12 29 7 14 16 12 -2 17 -4 12 26 -11 3 11 12 3 4 3 -5 13 11 11 12 16 -9 19 1 7 8 5 8 8 7 7 5 4 3 3 4 2 5 4 5 8 8
7 1 8 12 0 8 11 6 13 24 24 5 28 31 -15 15 13 4 6 6 7 9 6 19 1 14 4 4 3 4 6 9 7 11 9 8 6 10 4 5 3 2 3 5 4 3 7 7 7
2 -1 7 6 19 -2 -0 4 5 6 -7 13 1 4 19 12 11 8 8 13 9 12 12 -11 17 14 -7 -15 4 -5 -0 8 4 4 3 4 6 4 4 4 2 2 4 3 3 4 7 9 7
3 1 1 -7 3 8 -3 -0 21 -1 4 14 10 14 9 8 7 5 4 -1 11 12 9 8 -1 18 28 1 -6 41 -10 -11 5 14 10 6 6 1 4 1 2 2 2 3 3 2 5 8 8
13 -2 0 23 10 -0 2 8 6 1 11 3 11 7 17 11 10 9 4 4 9 9 7 12 18 -0 20 18 -1 3 20 42 3 4 8 8 2 -2 2 5 2 1 1 2 1 1 3 8 7
6 -3 3 9 16 7 8 6 2 2 11 7 8 15 19 15 10 9 6 17 16 9 7 4 17 9 20 -11 -1 7 6 29 2 5 4 -1 11 -1 4 1 3 -1 2 2 2 1 4 7 9
24 6 10 0 4 2 11 7 9 5 1 7 11 6 20 16 7 14 6 12 25 13 19 8 -0 7 -5 -16 36 7 -8 34 -1 5 7 -9 -0 -3 -10 3 -0 3 3 2 2 3 4 7 10
4 3 7 7 28 -2 0 7 12 -5 33 18 -1 4 13 10 6 6 14 12 32 7 9 -14 14 8 21 33 -25 17 -10 33 -2 15 -2 15 14 -5 6 -2 3 2 2 1 3 4 6 9 9
1 16 4 16 0 31 2 4 -16 -9 29 11 8 5 8 3 6 15 7 15 49 33 -9 4 32 -12 -31 25 39 44 15 42 13 40 -24 6 -6 10 -6 1 1 2 2 2 4 4 6 7 9
8 3 1 22 17 7 -5 5 2 35 10 7 -6 32 5 11 8 12 1 1 5 27 35 11 18 22 12 29 49 46 22 15 36 39 26 4 9 -1 -1 3 1 3 3 3 3 6 6 7 8
11 -4 8 -8 43 5 13 9 -8 4 9 9 5 -8 12 28 5 7 -8 -7 1 0 16 31 32 22 20 -18 13 13 25 6 4 -5 16 -6 1 -1 2 2 1 3 4 2 2 2 4 6 6
-1 -1 38 44 48 14 -1 14 9 17 16 25 8 0 6 18 5 3 8 9 13 7 1 13 18 19 -6 37 15 26 4 32 33 18 5 -3 -0 1 1 1 3 3 3 2 3 2 2 6 6
1 8 13 -3 5 9 15 6 13 28 8 13 6 -6 5 8 7 8 6 6 8 8 9 5 3 9 19 12 14 31 26 20 3 4 -1 0 2 2 5 2 4 6 3 3 4 2 3 7 6
24 4 8 3 25 7 -8 2 14 1 -2 2 4 4 1 14 6 9 6 6 3 4 8 8 7 4 2 4 -8 -5 -1 -1 1 3 5 6 3 4 4 3 5 10 3 4 5 5 2 5 7
13 12 8 7 5 14 -3 -1 -4 7 -11 34 -0 6 -6 11 11 8 7 6 6 2 4 7 11 7 8 8 9 9 8 5 5 6 7 6 5 6 9 7 4 8 7 2 4 5 5 4 5
3 7 7 10 4 7 11 9 -1 32 6 -12 32 9 1 2 15 7 6 5 6 7 3 4 4 5 7 5 4 4 7 8 8 9 10 11 12 9 7 7 1 4 8 9 7 5 8 5 7
5 -0 11 35 -0 2 -4 8 -0 40 1 3 16 -2 0 -3 8 18 6 5 7 4 4 6 4 2 4 5 6 5 7 6 6 5 5 5 5 10 3 8 9 3 5 8 8 5 4 4 4
6 -1 18 20 -1 36 8 3 18 1 22 29 -6 -2 5 -1 -6 -2 4 6 1 3 4 3 4 5 3 4 5 4 11 7 5 5 4 3 4 6 7 1 5 5 3 7 8 9 5 7 3
-1 -3 15 20 35 -12 17 31 2 20 7 12 22 -2 -4 7 -1 1 10 14 6 0 7 5 5 5 5 4 3 2 3 5 9 4 6 3 3 6 7 5 5 3 8 5 9 10 3 22 -7
13 1 -34 7 9 6 13 8 20 40 15 34 23 16 32 12 -2 -4 19 10 17 10 5 4 5 5 6 4 7 8 5 -11 23 15 1 19 1 12 3 6 3 2 5 5 8 5 -5 26 -10
21 -2 7 -6 -14 14 8 -2 29 17 5 3 9 19 28 1 4 -1 -5 4 -3 12 18 19 10 3 3 4 3 8 19 -19 -8 2 12 7 13 3 1 16 5 4 8 4 8 8 10 28 4
1 -20 15 10 8 4 19 24 -27 15 13 1 11 18 15 8 26 7 6 4 -2 -3 2 11 7 5 8 7 8 -2 9 8 2 8 4 13 13 10 2 4 11 7 7 9 17 19 12 -1 -12
6 12 -10 11 -5 -11 4 12 4 14 11 -2 7 11 13 10 -6 -2 21 14 -11 -2 3 2 8 2 10 13 11 8 13 -1 16 4 3 6 11 9 9 9 7 3 6 7 7 11 9 15 4
-5 -2 10 -20 25 -16 13 13 23 16 48 28 3 -1 7 12 15 15 39 -6 -2 8 10 -1 7 6 4 2 16 23 25 15 4 -5 -1 9 3 10 11 5 5 5 6 5 7 6 10 -8 33
Height
3137 3136 3134 3136 3139 3133 3128 3126 3126 3125 3126 3126 3124 3126 3123 3121 3121 3125 3128 3131 3131 3123 3131 3101 3129 3141 3145 3144 3147 3151 3154 3154 3157 3160 3162 3163 3164 3166 3167 3168 3170 3170 3171 3172 3174 3174 3175 3176 3177
3136 3135 3135 3134 3134 3132 3126 3124 3124 3127 3125 3125 3123 3121 3122 3120 3118 3123 3126 3129 3132 3129 3130 3127 3122 3141 3144 3144 3147 3149 3152 3153 3156 3159 3161 3163 3165 3166 3167 3169 3170 3172 3172 3173 3175 3176 3177 3178 3178
3136 3134 3135 3133 3130 3128 3124 3123 3124 3124 3124 3124 3122 3120 3122 3122 3121 3122 3123 3126 3131 3129 3129 3124 3138 3140 3137 3140 3144 3147 3148 3152 3153 3157 3161 3162 3165 3167 3167 3170 3171 3172 3174 3175 3176 3177 3179 3179 3179
3135 3136 3135 3132 3128 3125 3123 3126 3123 3123 3124 3125 3120 3121 3122 3122 3122 3123 3122 3123 3128 3126 3123 3124 3129 3133 3127 3127 3138 3145 3148 3150 3152 3155 3160 3162 3165 3168 3169 3170 3172 3174 3175 3176 3177 3178 3179 3179 3179
3134 3133 3132 3130 3127 3124 3123 3123 3122 3122 3124 3122 3119 3118 3117 3117 3118 3121 3117 3121 3125 3125 3125 3126 3129 3130 3120 3121 3135 3142 3148 3149 3151 3155 3159 3162 3164 3168 3170 3172 3173 3175 3176 3177 3178 3179 3180 3180 3180
3133 3133 3131 3129 3124 3123 3121 3121 3120 3120 3126 3125 3118 3117 3120 3119 3116 3115 3115 3115 3123 3125 3123 3122 3125 3129 3127 3128 3112 3138 3145 3147 3150 3153 3158 3161 3164 3168 3170 3172 3174 3175 3177 3177 3179 3179 3180 3180 3180
3131 3132 3130 3128 3123 3120 3119 3120 3117 3115 3124 3121 3118 3117 3118 3121 3117 3117 3117 3119 3123 3124 3121 3122 3124 3126 3128 3130 3134 3132 3143 3146 3148 3152 3157 3161 3163 3167 3169 3172 3173 3175 3177 3177 3179 3180 3180 3180 3180
3130 3132 3129 3126 3122 3118 3119 3120 3117 3117 3120 3119 3118 3115 3117 3117 3115 3116 3117 3116 3118 3120 3121 3121 3124 3126 3129 3129 3131 3135 3141 3145 3147 3154 3157 3160 3163 3166 3169 3171 3173 3175 3177 3178 3179 3179 3180 3180 3180
3131 3131 3128 3125 3123 3117 3118 3119 3117 3115 3116 3114 3115 3114 3113 3113 3112 3113 3117 3117 3118 3119 3121 3121 3122 3125 3128 3125 3132 3133 3140 3143 3146 3153 3156 3159 3162 3166 3169 3172 3171 3174 3177 3178 3179 3179 3179 3180 3180
3128 3128 3125 3125 3124 3117 3116 3119 3120 3116 3114 3113 3114 3114 3111 3111 3110 3108 3113 3116 3116 3115 3115 3117 3117 3119 3123 3127 3129 3130 3134 3138 3146 3151 3153 3155 3160 3164 3169 3171 3172 3174 3176 3177 3178 3179 3180 3181 3180
3125 3126 3125 3124 3121 3117 3117 3121 3116 3114 3115 3115 3113 3111 3111 3108 3108 3107 3108 3110 3111 3111 3111 3111 3113 3116 3120 3122 3125 3128 3134 3135 3139 3144 3149 3155 3157 3163 3168 3171 3173 3175 3176 3177 3179 3179 3180 3180 3180
3124 3123 3124 3123 3121 3116 3115 3115 3115 3114 3114 3114 3114 3110 3108 3108 3108 3108 3107 3106 3106 3105 3105 3105 3108 3111 3115 3119 3123 3125 3130 3131 3136 3141 3148 3151 3158 3162 3166 3171 3172 3173 3174 3176 3178 3179 3179 3179 3179
3120 3120 3120 3120 3119 3118 3114 3114 3111 3107 3113 3116 3111 3110 3106 3106 3106 3105 3103 3102 3099 3100 3101 3102 3105 3107 3109 3112 3114 3120 3122 3127 3134 3139 3141 3149 3156 3161 3167 3170 3170 3173 3173 3175 3177 3178 3177 3177 3177
3117 3116 3116 3116 3116 3117 3115 3112 3110 3109 3109 3110 3109 3107 3107 3105 3103 3100 3100 3099 3094 3095 3096 3099 3102 3104 3110 3111 3113 3115 3115 3121 3129 3135 3143 3148 3156 3161 3166 3169 3170 3172 3173 3174 3176 3176 3175 3176 3176
3113 3113 3113 3112 3112 3112 3112 3112 3110 3108 3107 3107 3107 3106 3108 3106 3103 3100 3097 3097 3093 3095 3097 3097 3099 3101 3104 3107 3110 3112 3115 3120 3128 3132 3140 3148 3154 3160 3165 3166 3167 3170 3173 3172 3173 3173 3174 3174 3175
3110 3111 3109 3105 3108 3108 3109 3107 3106 3106 3106 3106 3108 3108 3106 3105 3103 3102 3100 3097 3096 3094 3095 3095 3096 3101 3104 3106 3110 3113 3119 3122 3127 3131 3139 3150 3155 3159 3161 3164 3166 3168 3169 3170 3171 3171 3171 3171 3171
3106 3105 3104 3101 3102 3104 3105 3105 3107 3105 3107 3105 3105 3107 3107 3105 3104 3104 3102 3100 3099 3096 3095 3094 3094 3097 3101 3105 3110 3113 3118 3122 3126 3134 3143 3150 3153 3157 3159 3161 3164 3166 3167 3167 3168 3168 3168 3167 3167
3102 3103 3102 3100 3099 3099 3100 3102 3105 3104 3103 3104 3103 3104 3105 3104 3103 3104 3103 3101 3100 3099 3099 3099 3098 3099 3101 3105 3107 3111 3116 3120 3127 3137 3143 3147 3151 3154 3157 3159 3161 3162 3163 3163 3166 3166 3164 3165 3164
3101 3102 3100 3099 3100 3100 3098 3098 3099 3099 3099 3098 3099 3102 3102 3103 3102 3103 3103 3103 3102 3101 3102 3103 3102 3102 3106 3105 3108 3112 3115 3122 3128 3134 3140 3144 3148 3152 3155 3157 3157 3159 3159 3161 3162 3163 3162 3162 3161
3102 3099 3099 3098 3098 3101 3098 3096 3095 3096 3098 3097 3100 3101 3100 3101 3101 3102 3103 3103 3103 3103 3103 3104 3105 3106 3109 3110 3114 3118 3121 3127 3132 3135 3138 3141 3145 3149 3151 3152 3153 3155 3156 3157 3158 3159 3159 3158 3156
3096 3096 3097 3097 3096 3096 3095 3094 3093 3094 3096 3099 3099 3101 3099 3099 3099 3101 3102 3103 3104 3104 3106 3106 3108 3109 3111 3113 3117 3120 3122 3125 3128 3131 3134 3138 3142 3144 3147 3148 3149 3151 3152 3152 3154 3154 3154 3153 3151
3092 3093 3093 3093 3093 3093 3093 3090 3089 3088 3090 3090 3092 3094 3095 3095 3097 3099 3101 3102 3104 3105 3106 3108 3109 3111 3113 3114 3117 3119 3121 3123 3127 3130 3132 3135 3138 3139 3142 3144 3145 3146 3149 3148 3149 3149 3148 3146 3145
3090 3091 3090 3089 3089 3090 3090 3090 3085 3085 3086 3084 3087 3090 3092 3092 3095 3097 3098 3100 3103 3104 3105 3107 3108 3110 3112 3114 3116 3118 3120 3122 3125 3127 3129 3132 3134 3136 3138 3140 3141 3141 3142 3143 3143 3143 3142 3141 3139
3087 3088 3089 3087 3087 3084 3084 3086 3081 3083 3083 3081 3084 3086 3087 3089 3091 3093 3097 3099 3100 3102 3103 3104 3105 3107 3109 3111 3112 3114 3117 3119 3121 3123 3125 3127 3129 3132 3133 3134 3135 3135 3137 3137 3137 3137 3136 3134 3131
3083 3085 3086 3089 3085 3082 3080 3080 3075 3077 3079 3081 3080 3084 3084 3084 3086 3089 3091 3094 3096 3097 3100 3101 3103 3105 3107 3108 3109 3112 3114 3117 3119 3120 3119 3121 3124 3126 3128 3129 3130 3131 3131 3131 3129 3129 3127 3123 3119
3077 3080 3081 3088 3085 3078 3077 3075 3072 3071 3074 3076 3077 3078 3080 3079 3081 3083 3086 3089 3091 3093 3094 3096 3097 3099 3102 3104 3106 3109 3111 3112 3112 3114 3115 3118 3120 3120 3122 3122 3124 3124 3124 3123 3123 3121 3120 3119 3116
3072 3073 3080 3080 3080 3079 3074 3072 3069 3070 3072 3073 3075 3074 3075 3077 3077 3079 3082 3084 3087 3088 3090 3090 3091 3091 3093 3096 3099 3102 3103 3106 3107 3109 3112 3112 3114 3115 3115 3116 3117 3117 3117 3116 3115 3114 3113 3111 3111
3066 3071 3075 3075 3077 3078 3072 3068 3065 3064 3068 3072 3073 3074 3076 3077 3078 3077 3076 3079 3081 3083 3083 3084 3086 3089 3091 3093 3095 3096 3098 3098 3100 3105 3106 3108 3109 3108 3110 3111 3111 3112 3110 3110 3108 3106 3105 3104 3102
3061 3063 3067 3072 3070 3070 3070 3066 3065 3062 3062 3069 3071 3071 3073 3074 3076 3076 3075 3073 3075 3076 3076 3079 3082 3085 3088 3090 3091 3092 3093 3093 3090 3096 3099 3101 3103 3103 3104 3104 3105 3104 3103 3101 3100 3098 3097 3095 3094
3053 3057 3060 3064 3065 3065 3061 3062 3062 3063 3064 3066 3069 3069 3069 3069 3070 3071 3072 3072 3068 3067 3069 3075 3076 3076 3080 3080 3081 3080 3076 3084 3082 3072 3090 3094 3096 3097 3098 3098 3097 3096 3094 3093 3092 3090 3088 3088 3085